Location: Utrecht
(52.0907°N, 5.1214°E)
Time: 00:22:00
(UTC+02:00)

MOZHAYETS 4 - Pass Details

Date: 01 July 2022
Orbit: 660 x 678 km, 98.2° (Epoch: 18 August)

Event Time Altitude Azimuth Distance (km) Brightness Sun altitude
Exits shadow 03:00:00 - 140° (SE) 3,032 10.8 -12.9°
Rises 03:00:02 0° 140° (SE) 3,023 10.8 -12.9°
Reaches altitude 10° 03:02:22 10° 132° (SE) 2,111 10.1 -12.8°
Maximum altitude 03:06:37 38° 65° (ENE) 1,032 9.1 -12.6°
Drops below altitude 10° 03:10:53 10° 358° (N) 2,115 11.5 -12.4°
Sets 03:13:14 0° 351° (N) 3,030 12.2 -12.3°
